Bryce Canyon, UT

9:22 PM MDT on October 20, 2019 (GMT -0600)
Bryce Canyon

Weather History for KBCE - August, 2019

Change the Weather History Date:

Tuesday, August 13, 2019

  Actual Average Record
Temperature  
Mean Temperature 62 °F -  
Max Temperature 82 °F 75 °F 88 °F (1960)
Min Temperature 42 °F 44 °F 35 °F (1976)
Degree Days  
Heating Degree Days 4    
Growing Degree Days 12 (Base 50)    
Moisture  
Dew Point 31 °F    
Average Humidity 36    
Maximum Humidity 71    
Minimum Humidity 12    
Precipitation  
Precipitation 0.00 in - - ()
Sea Level Pressure  
Sea Level Pressure 30.05 in    
Wind  
Wind Speed 8 mph (West)    
Max Wind Speed 14 mph    
Max Gust Speed 20 mph    
Visibility 10 miles    
Events      
Averages and records for this station are not official NWS values.
T = Trace of Precipitation, MM = Missing Value Source: NWS Daily Summary

Daily Weather History Graph

Daily Weather History Graph

Search for Another Location

Airport or City:

Astronomy

Aug. 13, 2019 Rise Set
Actual Time 6:42 AM MDT 8:23 PM MDT
Civil Twilight 6:14 AM MDT 8:51 PM MDT
Nautical Twilight 5:40 AM MDT 9:25 PM MDT
Astronomical Twilight 5:04 AM MDT 10:01 PM MDT
Moon 7:39 PM MDT (8/13) 4:50 AM MDT (8/13)
Length of Visible Light 14h 37m
Length of Day
13h 41m
Waxing Gibbous, 97% of the Moon is Illuminated
Aug 13
Waxing Gibbous
Aug 15
Full
Aug 23
Last Quarter
Aug 30
New
Sep 5
First Quarter

Hourly Weather History & Observations

Time (MDT) Temp. Windchill Dew Point Humidity Pressure Visibility Wind Dir Wind Speed Gust Speed Precip Events Conditions
12:53 AM 53.1 °F - 37.0 °F 55% 30.01 in 10.0 mi West 9.2 mph - N/A   Clear
1:53 AM 48.9 °F - 37.0 °F 64% 30.03 in 10.0 mi West 8.1 mph - N/A   Clear
2:53 AM 45.0 °F 42.6 °F 36.0 °F 71% 30.05 in 10.0 mi West 4.6 mph - N/A   Clear
3:53 AM 46.0 °F 40.6 °F 35.1 °F 66% 30.04 in 10.0 mi West 11.5 mph - N/A   Clear
4:53 AM 45.0 °F - 34.0 °F 65% 30.05 in 10.0 mi Calm Calm - N/A   Clear
5:53 AM 42.1 °F 37.7 °F 33.1 °F 70% 30.07 in 10.0 mi WSW 6.9 mph - N/A   Clear
6:53 AM 44.1 °F 37.7 °F 33.1 °F 65% 30.08 in 10.0 mi West 12.7 mph - N/A   Clear
7:53 AM 52.0 °F - 34.0 °F 50% 30.08 in 10.0 mi West 6.9 mph - N/A   Clear
8:53 AM 63.0 °F - 39.0 °F 41% 30.08 in 10.0 mi North 3.5 mph - N/A   Clear
9:53 AM 71.1 °F - 37.0 °F 29% 30.07 in 10.0 mi NE 6.9 mph - N/A   Clear
10:53 AM 75.0 °F - 30.0 °F 19% 30.07 in 10.0 mi WNW 6.9 mph - N/A   Clear
11:53 AM 77.0 °F - 30.0 °F 18% 30.08 in 10.0 mi WNW 13.8 mph - N/A   Clear
12:53 PM 78.1 °F - 30.9 °F 18% 30.06 in 10.0 mi WSW 12.7 mph 16.1 mph N/A   Clear
1:53 PM 80.1 °F - 30.9 °F 17% 30.04 in 10.0 mi South 6.9 mph - N/A   Clear
2:53 PM 81.0 °F - 28.0 °F 14% 30.04 in 10.0 mi SSE 4.6 mph - N/A   Mostly Cloudy
3:53 PM 81.0 °F - 24.1 °F 12% 30.02 in 10.0 mi Calm Calm - N/A   Clear
4:53 PM 81.0 °F - 23.0 °F 12% 30.01 in 10.0 mi North - - N/A   Clear
5:53 PM 81.0 °F - 25.0 °F 13% 30.02 in 10.0 mi West 10.4 mph - N/A   Clear
6:53 PM 77.0 °F - 24.1 °F 14% 30.02 in 10.0 mi WSW 12.7 mph 19.6 mph N/A   Clear
7:53 PM 73.9 °F - 25.0 °F 16% 30.02 in 10.0 mi SW 8.1 mph - N/A   Clear
8:53 PM 63.0 °F - 27.0 °F 26% 30.04 in 10.0 mi West 9.2 mph - N/A   Clear
9:53 PM 59.0 °F - 27.0 °F 29% 30.04 in 10.0 mi WSW 6.9 mph - N/A   Clear
10:53 PM 55.9 °F - 28.0 °F 34% 30.05 in 10.0 mi NW 4.6 mph - N/A   Clear
11:53 PM 51.1 °F - 28.9 °F 43% 30.08 in 10.0 mi West 6.9 mph - N/A   Clear